TimeMST,TemperatureF,Dew PointF,Humidity,Sea Level PressureIn,VisibilityMPH,Wind Direction,Wind SpeedMPH,Gust SpeedMPH,PrecipitationIn,Events,Conditions,WindDirDegrees,DateUTC
12:52 AM,28.0,17.1,63,29.97,10.0,West,9.2,-,N/A,,Clear,270,2013-02-13 07:52:00
1:52 AM,26.1,17.1,69,29.96,10.0,SW,5.8,-,N/A,,Clear,230,2013-02-13 08:52:00
2:52 AM,26.1,17.1,69,29.94,10.0,WSW,5.8,-,N/A,,Clear,240,2013-02-13 09:52:00
3:52 AM,28.9,18.0,64,29.92,10.0,WSW,9.2,-,N/A,,Overcast,250,2013-02-13 10:52:00
4:52 AM,27.0,17.1,66,29.94,10.0,WSW,9.2,-,N/A,,Mostly Cloudy,250,2013-02-13 11:52:00
5:52 AM,27.0,17.1,66,29.92,10.0,SW,9.2,-,N/A,,Clear,220,2013-02-13 12:52:00
6:52 AM,26.1,17.1,69,29.92,10.0,WSW,9.2,-,N/A,,Clear,240,2013-02-13 13:52:00
7:52 AM,30.9,18.0,59,29.92,10.0,West,9.2,-,N/A,,Overcast,260,2013-02-13 14:52:00
8:52 AM,34.0,18.0,52,29.91,10.0,West,11.5,-,N/A,,Overcast,260,2013-02-13 15:52:00
9:52 AM,36.0,18.0,48,29.88,10.0,West,17.3,23.0,N/A,,Overcast,270,2013-02-13 16:52:00
10:52 AM,41.0,19.9,43,29.87,10.0,West,10.4,-,N/A,,Overcast,280,2013-02-13 17:52:00
11:52 AM,46.0,21.0,37,29.83,10.0,West,16.1,24.2,N/A,,Clear,270,2013-02-13 18:52:00
12:52 PM,48.0,21.0,34,29.81,10.0,WNW,19.6,26.5,N/A,,Clear,290,2013-02-13 19:52:00
1:52 PM,46.9,21.9,37,29.81,10.0,WNW,18.4,25.3,N/A,,Mostly Cloudy,290,2013-02-13 20:52:00
2:52 PM,48.0,21.9,36,29.80,10.0,WNW,16.1,29.9,N/A,,Mostly Cloudy,290,2013-02-13 21:52:00
3:52 PM,44.1,27.0,51,29.83,10.0,WNW,9.2,-,0.00,,Overcast,300,2013-02-13 22:52:00
4:33 PM,41.0,28.4,61,29.81,10.0,North,12.7,-,0.00,,Overcast,350,2013-02-13 23:33:00
4:52 PM,41.0,28.0,60,29.88,10.0,NNW,10.4,-,0.00,Rain,Light Rain,330,2013-02-13 23:52:00
5:52 PM,37.0,30.0,76,29.90,10.0,NW,3.5,-,0.00,,Overcast,310,2013-02-14 00:52:00
6:52 PM,36.0,28.0,73,29.94,10.0,Calm,Calm,-,N/A,,Mostly Cloudy,0,2013-02-14 01:52:00
7:52 PM,36.0,27.0,70,29.97,10.0,WNW,5.8,-,N/A,,Mostly Cloudy,300,2013-02-14 02:52:00
8:52 PM,34.0,27.0,75,29.99,10.0,West,3.5,-,N/A,,Scattered Clouds,260,2013-02-14 03:52:00
9:52 PM,32.0,27.0,82,30.01,10.0,Calm,Calm,-,N/A,,Clear,0,2013-02-14 04:52:00
10:52 PM,32.0,28.0,85,30.00,10.0,SW,9.2,-,N/A,,Overcast,230,2013-02-14 05:52:00
11:52 PM,33.1,27.0,78,30.00,10.0,NW,8.1,-,N/A,,Clear,310,2013-02-14 06:52:00